MOLNIYA 1-49

Last updated on Tue Jun 27 2023 00:03:05 GMT+0000 (Coordinated Universal Time)

1 12156U 81009A 23177.01132053 .00001345 00000+0 21911-3 0 9997 2 12156 61.7019 105.3156 7423993 268.9342 13.9303 2.05742734229201
UTC large
Height (km)
Speed (km/s)
/
Latitude / Longitude
Inclination (degrees)
Orbital Period (minutes)
Azimuth
Elevation
Range (km)
Doppler Factor

Next 0 passes for location: London (51.5072 / 0.1276)

Sorry there are no passes over London.
MOLNIYA 1-49